Location: ?astrovice
(49.6513°N, 14.9287°E)
Time: 08:34:59
(UTC+00:00)

Terra - Visible Passes

Search period start: 21 June 2021 00:00
Search period end: 01 July 2021 00:00
Orbit: 701 x 703 km, 98.2° (Epoch: 20 June)

Date Brightness Start Highest point End Pass type
(mag) Time Alt. Az. Time Alt. Az. Time Alt. Az.
21 Jun 2.8 21:24:33 14° SSW 21:28:23 41° W 21:32:54 10° NNW visible
22 Jun 2.0 20:28:55 12° SSE 20:33:17 66° ENE 20:38:01 10° N visible
22 Jun 3.9 22:08:18 10° SW 22:11:30 18° W 22:14:43 10° NW visible
23 Jun 2.4 21:12:09 14° S 21:16:04 53° W 21:20:45 10° NNW visible
24 Jun 2.2 20:16:31 10° SE 20:21:05 52° ENE 20:25:43 10° N visible
24 Jun 3.6 21:55:24 10° SW 21:59:07 23° W 22:02:52 10° NW visible
25 Jun 2.0 20:59:46 14° S 21:03:47 68° WSW 21:08:33 10° NNW visible
26 Jun 2.6 20:04:26 10° SE 20:08:53 41° ENE 20:13:21 10° N visible
26 Jun 3.3 21:43:01 12° SSW 21:46:45 28° W 21:50:53 10° NW visible
27 Jun 1.8 20:47:22 14° SSE 20:51:31 86° WSW 20:56:19 10° NNW visible
27 Jun 4.2 22:28:07 10° WSW 22:30:00 12° W 22:31:53 10° WNW visible
28 Jun 2.9 19:52:30 10° SE 19:56:43 33° ENE 20:00:57 10° N visible
28 Jun 3.0 21:30:38 13° SSW 21:34:24 36° W 21:38:50 10° NNW visible
29 Jun 1.9 20:35:00 13° SSE 20:39:16 75° ENE 20:44:03 10° N visible
29 Jun 4.1 22:14:43 10° SW 22:17:35 16° W 22:20:27 10° NW visible
30 Jun 2.6 21:18:15 14° S 21:22:05 46° W 21:26:42 10° NNW visible
